Weather History for Burbank, CA

Change the Weather History Date:

Sunday, October 20, 2013

  Actual Average Record
Temperature  
Mean Temperature 68 °F 66 °F  
Max Temperature 81 °F 79 °F 98 °F (2003)
Min Temperature 54 °F 53 °F 39 °F (1949)
Degree Days  
Heating Degree Days 0 2  
Month to date heating degree days 13 21  
Since 1 July heating degree days 13 27  
Cooling Degree Days 3 3  
Month to date cooling degree days 112 79  
Year to date cooling degree days 1942 1210  
Growing Degree Days 18 (Base 50)    
Moisture  
Dew Point 44 °F    
Average Humidity 55    
Maximum Humidity 78    
Minimum Humidity 31    
Precipitation  
Precipitation 0.00 in 0.03 in 1.62 in (2004)
Month to date precipitation 0.10 0.57  
Year to date precipitation 2.71 13.44  
Since 1 July precipitation 0.11 0.89  
Sea Level Pressure  
Sea Level Pressure 29.91 in    
Wind  
Wind Speed 4 mph (SE)    
Max Wind Speed 12 mph    
Max Gust Speed 16 mph    
Visibility 9 miles    
Events      
T = Trace of Precipitation, MM = Missing Value Source: NWS Daily Summary

Daily Weather History Graph

Daily Weather History Graph

Search for Another Location

Airport:

Trip Planner

Search our weather history database for the weather conditions in past years. The results will help you decide how hot, cold, wet, or windy it might be!

Date:

Astronomy

Oct. 20, 2013 Rise Set
Actual Time 7:03 AM PDT 6:12 PM PDT
Civil Twilight 6:37 AM PDT 6:38 PM PDT
Nautical Twilight 6:08 AM PDT 7:07 PM PDT
Astronomical Twilight 5:39 AM PDT 7:36 PM PDT
Moon 7:30 PM PDT (10/20) 8:40 AM PDT (10/20)
Length of Visible Light 12h 00m
Length of Day
11h 09m
Waning Gibbous, 97% of the Moon is Illuminated
Oct 20
Waning Gibbous
Oct 26
Last Quarter
Nov 3
New
Nov 9
First Quarter
Nov 17
Full

Hourly Weather History & Observations

Time (PDT) Temp. Dew Point Humidity Pressure Visibility Wind Dir Wind Speed Gust Speed Precip Events Conditions
12:53 AM 63.0 °F 39.0 °F 41% 29.94 in 10.0 mi North 3.5 mph - N/A   Clear
1:53 AM 62.1 °F 36.0 °F 38% 29.93 in 10.0 mi Calm Calm - N/A   Clear
2:53 AM 60.1 °F 34.0 °F 38% 29.92 in 10.0 mi Calm Calm - N/A   Clear
3:53 AM 57.9 °F 36.0 °F 44% 29.91 in 10.0 mi NNW 3.5 mph - N/A   Clear
4:53 AM 57.0 °F 35.1 °F 44% 29.91 in 10.0 mi Calm Calm - N/A   Clear
5:53 AM 55.9 °F 36.0 °F 47% 29.92 in 10.0 mi Calm Calm - N/A   Clear
6:53 AM 57.0 °F 34.0 °F 42% 29.93 in 10.0 mi Calm Calm - N/A   Clear
7:53 AM 57.0 °F 35.1 °F 44% 29.94 in 10.0 mi Calm Calm - N/A   Clear
8:53 AM 63.0 °F 35.1 °F 35% 29.95 in 10.0 mi Calm Calm - N/A   Clear
9:53 AM 68.0 °F 39.9 °F 36% 29.95 in 10.0 mi Calm Calm - N/A   Clear
10:53 AM 72.0 °F 39.0 °F 30% 29.94 in 10.0 mi SSE 5.8 mph - N/A   Clear
11:53 AM 75.0 °F 46.9 °F 37% 29.93 in 6.0 mi SE 5.8 mph - N/A   Haze
12:53 PM 78.1 °F 46.0 °F 32% 29.91 in 7.0 mi SE 5.8 mph - N/A   Clear
1:53 PM 80.1 °F 48.0 °F 32% 29.88 in 6.0 mi SSE 9.2 mph - N/A   Haze
2:53 PM 80.1 °F 51.1 °F 36% 29.86 in 6.0 mi South 10.4 mph - N/A   Haze
3:53 PM 78.1 °F 48.0 °F 35% 29.86 in 10.0 mi South 10.4 mph - N/A   Clear
4:53 PM 77.0 °F 45.0 °F 32% 29.86 in 10.0 mi South 8.1 mph - N/A   Clear
5:53 PM 72.0 °F 51.1 °F 48% 29.86 in 10.0 mi SSE 6.9 mph - N/A   Clear
6:53 PM 70.0 °F 51.1 °F 51% 29.88 in 10.0 mi SE 5.8 mph - N/A   Clear
7:53 PM 68.0 °F 54.0 °F 61% 29.89 in 10.0 mi East 4.6 mph - N/A   Clear
8:53 PM 66.0 °F 55.0 °F 68% 29.90 in 10.0 mi East 5.8 mph - N/A   Clear
9:53 PM 64.0 °F 55.0 °F 73% 29.91 in 9.0 mi East 5.8 mph - N/A   Clear
10:53 PM 63.0 °F 55.0 °F 75% 29.91 in 7.0 mi South 3.5 mph - N/A   Clear
11:53 PM 61.0 °F 54.0 °F 78% 29.91 in 5.0 mi Calm Calm - N/A   Haze